Fort Knox, KY

4:32 PM EST on December 08, 2019 (GMT -0500)
Godman Army Air Field

Weather History for KFTK - October, 2019

Change the Weather History Date:

Wednesday, October 23, 2019

  Actual Average Record
Temperature  
Mean Temperature 50 °F -  
Max Temperature 66 °F 64 °F 82 °F (2000)
Min Temperature 36 °F 44 °F 24 °F (1997)
Degree Days  
Heating Degree Days 14    
Moisture  
Dew Point 34 °F    
Average Humidity 58    
Maximum Humidity 88    
Minimum Humidity 27    
Precipitation  
Precipitation 0.00 in - - ()
Sea Level Pressure  
Sea Level Pressure 30.14 in    
Wind  
Wind Speed 5 mph (South)    
Max Wind Speed 12 mph    
Max Gust Speed -    
Visibility 10 miles    
Events      
Averages and records for this station are not official NWS values.
T = Trace of Precipitation, MM = Missing Value Source: NWS Daily Summary

Daily Weather History Graph

Daily Weather History Graph

Search for Another Location

Airport or City:

Astronomy

Oct. 23, 2019 Rise Set
Actual Time 7:59 AM EDT 6:55 PM EDT
Civil Twilight 7:33 AM EDT 7:22 PM EDT
Nautical Twilight 7:02 AM EDT 7:53 PM EDT
Astronomical Twilight 6:32 AM EDT 8:23 PM EDT
Moon 2:25 AM EDT (10/23) 4:39 PM EDT (10/23)
Length of Visible Light 11h 49m
Length of Day
10h 55m
Waning Crescent, 27% of the Moon is Illuminated
Oct 23
Waning Crescent
Oct 27
New
Nov 4
First Quarter
Nov 12
Full
Nov 19
Last Quarter

Hourly Weather History & Observations

Time (EDT) Temp. Windchill Dew Point Humidity Pressure Visibility Wind Dir Wind Speed Gust Speed Precip Events Conditions
12:56 AM 43.7 °F 42.1 °F 34.9 °F 71% 30.03 in 10.0 mi SSW 3.5 mph - N/A   Clear
1:47 AM 44.6 °F 41.4 °F 35.6 °F 71% 30.05 in 10.0 mi SSW 5.8 mph - N/A   Clear
1:56 AM 44.4 °F 41.2 °F 35.2 °F 70% 30.05 in 10.0 mi SSW 5.8 mph - N/A   Clear
2:51 AM 42.8 °F 38.6 °F 33.8 °F 70% 30.07 in 10.0 mi SSW 6.9 mph - N/A   Clear
2:56 AM 43.0 °F 39.5 °F 34.5 °F 72% 30.07 in 10.0 mi SW 5.8 mph - N/A   Clear
3:56 AM 41.0 °F - 34.0 °F 76% 30.08 in 10.0 mi Calm Calm - N/A   Clear
4:56 AM 38.1 °F - 33.4 °F 83% 30.09 in 10.0 mi Calm Calm - N/A   Clear
5:21 AM 37.4 °F 34.9 °F 33.8 °F 87% 30.10 in 10.0 mi SW 3.5 mph - N/A   Clear
5:56 AM 39.2 °F - 33.3 °F 79% 30.10 in 10.0 mi Calm Calm - N/A   Clear
6:43 AM 37.4 °F - 32.0 °F 81% 30.13 in 10.0 mi Calm Calm - N/A   Clear
6:56 AM 36.7 °F - 33.4 °F 88% 30.12 in 10.0 mi Calm Calm - N/A   Clear
7:54 AM 37.4 °F - 33.8 °F 87% 30.14 in 10.0 mi Calm Calm - N/A   Clear
7:57 AM 36.7 °F - 33.3 °F 87% 30.14 in 10.0 mi Calm Calm - N/A   Clear
8:56 AM 39.9 °F - 35.8 °F 85% 30.16 in 10.0 mi Calm Calm - N/A   Clear
9:36 AM 44.6 °F 43.1 °F 37.4 °F 76% 30.17 in 10.0 mi South 3.5 mph - N/A   Clear
9:56 AM 47.1 °F - 36.7 °F 67% 30.17 in 10.0 mi South 4.6 mph - N/A   Clear
10:17 AM - - - N/A% 30.18 in 10.0 mi North - - N/A   Unknown
10:56 AM 55.4 °F - 37.0 °F 50% 30.19 in 10.0 mi South 5.8 mph - N/A   Clear
11:56 AM 59.4 °F - 30.9 °F 34% 30.20 in 10.0 mi SSW 10.4 mph - N/A   Clear
12:56 PM 62.2 °F - 29.7 °F 29% 30.19 in 10.0 mi SW 8.1 mph - N/A   Clear
1:46 PM 64.4 °F - 30.2 °F 28% 30.17 in 10.0 mi South 11.5 mph - N/A   Clear
1:56 PM 64.0 °F - 30.2 °F 28% 30.17 in 10.0 mi SSE 10.4 mph - N/A   Clear
2:56 PM 65.5 °F - 30.6 °F 27% 30.15 in 10.0 mi South 9.2 mph - N/A   Clear
3:56 PM 64.9 °F - 31.1 °F 28% 30.13 in 10.0 mi SSW 9.2 mph - N/A   Clear
4:56 PM 65.7 °F - 31.6 °F 28% 30.12 in 10.0 mi South 10.4 mph - N/A   Clear
5:56 PM 63.9 °F - 31.8 °F 30% 30.14 in 10.0 mi South 10.4 mph - N/A   Clear
6:56 PM 58.3 °F - 33.4 °F 39% 30.16 in 10.0 mi South 5.8 mph - N/A   Clear
7:53 PM 55.4 °F - 33.8 °F 44% 30.18 in 10.0 mi SSE 5.8 mph - N/A   Clear
7:56 PM 55.6 °F - 34.0 °F 44% 30.18 in 10.0 mi SSE 5.8 mph - N/A   Clear
9:56 PM 52.0 °F - 34.3 °F 51% 30.19 in 10.0 mi South 6.9 mph - N/A   Clear
10:56 PM 52.5 °F - 35.4 °F 52% 30.18 in 10.0 mi South 10.4 mph - N/A   Clear
11:56 PM 52.3 °F - 33.8 °F 49% 30.17 in 10.0 mi South 5.8 mph - N/A   Clear